EW3079 Weather Reports


time (UTC)temp
C
wind
direction
speed
KPH
gust
KPH
rain 1hr
cm
rain 24hr
cm
rain mn
cm
humidity
%
barometer
mb
20260504100122 4 90 0.0 0.0 0.00 0.00 0.00 77 1012.2
20260504090122 5 113 0.0 0.0 0.00 0.00 0.00 76 1012.5
20260504081123 5 158 0.0 0.0 0.00 0.00 0.00 77 1012.5
20260504080123 5 135 0.0 0.0 0.00 0.00 0.00 77 1012.6
20260504070122 5 135 0.0 0.0 0.00 0.00 0.00 76 1012.7
20260504060123 6 180 0.0 0.0 0.00 0.00 0.00 74 1012.7
20260504050123 6 229 0.0 3.2 0.00 0.00 0.00 74 1013.0
20260504045123 6 360 0.0 0.0 0.00 0.00 0.00 74 1012.8
20260504044123 6 338 0.0 0.0 0.00 0.00 0.00 73 1012.8
20260504043123 7 222 0.0 3.2 0.00 0.00 0.00 74 1012.8
20260504042122 7 225 0.0 1.6 0.00 0.00 0.00 72 1012.8
20260504041122 6 68 0.0 0.0 0.00 0.00 0.00 71 1012.8
20260504040123 6 158 0.0 0.0 0.00 0.00 0.00 71 1012.6
20260504035123 7 158 0.0 0.0 0.00 0.00 0.00 73 1012.7
20260504034123 7 203 0.0 0.0 0.00 0.00 0.00 71 1012.6
20260504033123 7 45 0.0 0.0 0.00 0.00 0.00 72 1012.5
20260504032123 7 23 0.0 0.0 0.00 0.00 0.00 70 1012.5
20260504031122 7 270 0.0 1.6 0.00 0.00 0.00 70 1012.5
20260504030143 7 247 0.0 1.6 0.00 0.00 0.00 70 1012.4
20260504025143 7 23 0.0 0.0 0.00 0.00 0.00 68 1012.4
20260504024122 7 23 0.0 0.0 0.00 0.00 0.00 67 1012.3
20260504023122 7 113 0.0 0.0 0.00 0.00 0.00 66 1012.3
20260504022122 8 23 0.0 0.0 0.00 0.00 0.00 67 1012.3
20260504021143 8 23 0.0 0.0 0.00 0.00 0.00 67 1012.3
20260504020122 8 23 0.0 0.0 0.00 0.00 0.00 65 1012.3
20260504015122 8 23 0.0 0.0 0.00 0.00 0.00 66 1012.2
20260504014122 8 45 0.0 0.0 0.00 0.00 0.00 61 1012.1
20260504013122 9 45 0.0 0.0 0.00 0.00 0.00 60 1012.1
20260504012123 9 45 0.0 0.0 0.00 0.00 0.00 58 1011.9
20260504011122 10 23 0.0 0.0 0.00 0.00 0.00 58 1011.9
20260504010122 10 247 0.0 3.2 0.00 0.00 0.00 59 1011.9
20260504005123 10 270 0.0 0.0 0.00 0.00 0.00 59 1011.8
20260504004122 10 203 0.0 0.0 0.00 0.00 0.00 58 1011.8
20260504003123 11 257 0.0 3.2 0.00 0.00 0.00 57 1011.5
20260504002123 11 225 0.0 0.0 0.00 0.00 0.00 56 1011.5
20260504001122 12 68 0.0 0.0 0.00 0.00 0.00 54 1011.5
20260504000122 12 248 0.0 0.0 0.00 0.00 0.00 54 1011.3
20260503235122 13 270 0.0 0.0 0.00 0.00 0.00 49 1011.2
20260503234122 13 271 1.6 4.8 0.00 0.00 0.00 52 1011.0
20260503233143 14 249 3.2 4.8 0.00 0.00 0.00 49 1011.1
20260503232122 15 253 3.2 6.4 0.00 0.00 0.00 45 1011.1
20260503231122 15 257 3.2 6.4 0.00 0.00 0.00 45 1011.1
20260503230123 15 265 3.2 6.4 0.00 0.00 0.00 44 1011.0
20260503225123 15 248 4.8 9.7 0.00 0.00 0.00 43 1011.1
20260503224123 15 253 6.4 9.7 0.00 0.00 0.00 43 1011.0
20260503223123 15 257 4.8 12.9 0.00 0.00 0.00 44 1011.0
20260503222123 15 256 6.4 12.9 0.00 0.00 0.00 42 1010.8
20260503221143 15 269 4.8 11.3 0.00 0.00 0.00 43 1010.8
20260503220122 15 281 6.4 11.3 0.00 0.00 0.00 42 1011.1
20260503215143 16 256 6.4 11.3 0.00 0.00 0.00 40 1011.0
20260503214122 16 264 6.4 12.9 0.00 0.00 0.00 41 1011.1
20260503213143 16 289 9.7 16.1 0.00 0.00 0.00 39 1011.0
20260503212122 16 286 8.0 17.7 0.00 0.00 0.00 39 1010.9
20260503211122 16 265 8.0 14.5 0.00 0.00 0.00 41 1010.9
20260503210122 16 298 8.0 12.9 0.00 0.00 0.00 40 1011.1
20260503205123 16 273 9.7 16.1 0.00 0.00 0.00 39 1010.9
20260503204123 16 287 9.7 20.9 0.00 0.00 0.00 40 1011.1
20260503203122 16 264 8.0 16.1 0.00 0.00 0.00 40 1011.0
20260503202122 16 263 9.7 17.7 0.00 0.00 0.00 40 1011.1
20260503201143 16 335 9.7 17.7 0.00 0.00 0.00 41 1011.1
20260503200123 15 246 6.4 14.5 0.00 0.00 0.00 40 1011.3
20260503195122 16 252 8.0 12.9 0.00 0.00 0.00 41 1011.5
20260503194123 16 273 8.0 16.1 0.00 0.00 0.00 39 1011.7
20260503193122 16 250 9.7 14.5 0.00 0.00 0.00 38 1011.7
20260503192122 15 258 8.0 14.5 0.00 0.00 0.00 40 1011.8
20260503191122 15 273 9.7 17.7 0.00 0.00 0.00 40 1011.8
20260503190143 15 311 9.7 24.1 0.00 0.00 0.00 39 1012.0
20260503185122 14 309 6.4 11.3 0.00 0.00 0.00 42 1012.0
20260503184122 15 327 8.0 16.1 0.00 0.00 0.00 42 1012.3
20260503183143 15 326 9.7 16.1 0.00 0.00 0.00 43 1012.5
20260503182122 15 279 9.7 19.3 0.00 0.00 0.00 43 1012.5
20260503181122 13 307 8.0 24.1 0.00 0.00 0.00 44 1012.5
20260503180143 13 314 9.7 14.5 0.00 0.00 0.00 44 1012.5
20260503175122 13 308 9.7 17.7 0.00 0.00 0.00 43 1012.7
20260503174122 13 300 8.0 14.5 0.00 0.00 0.00 44 1012.7
20260503173122 13 298 9.7 19.3 0.00 0.00 0.00 43 1012.7
20260503172122 13 279 8.0 11.3 0.00 0.00 0.00 44 1012.8
20260503171143 13 323 8.0 17.7 0.00 0.00 0.00 44 1012.8
20260503170122 12 331 11.3 32.2 0.00 0.00 0.00 44 1013.0
20260503160122 11 346 8.0 12.9 0.00 0.00 0.00 45 1013.5
20260503150143 10 293 8.0 12.9 0.00 0.00 0.00 49 1013.6
20260503140122 8 316 9.7 20.9 0.00 0.00 0.00 57 1013.9
20260503131122 7 61 8.0 12.9 0.00 0.00 0.00 64 1013.9
20260503130143 6 306 9.7 22.5 0.00 0.00 0.00 65 1013.6
20260503120122 5 13 8.0 12.9 0.00 0.00 0.00 70 1013.4
20260503110122 4 297 4.8 9.7 0.00 0.00 0.00 73 1012.7